QPF
0.00 0.00 0.00 0.00 0.00 0.00 0.00 0.00 0.00 0.00 0.00 0.00 0.00 0.00 0.00 0.00 0.00 0.00 0.00 0.00 0.00 0.00 0.00 0.00 0.00 0.00 0.00 0.00 0.00 0.00 0.00 0.00 0.00 0.00 0.00 0.00 0.00 0.00 0.00 0.00 0.00 0.00 0.00 0.00
0.00 0.00 0.00 0.00 0.00 0.00 0.00 0.00 0.00 0.00 0.00 0.00 0.00 0.00 0.00 0.00 0.00 0.00 0.00 0.00 0.00 0.00 0.00 0.00 0.00 0.00 0.00 0.00 0.00 0.00 0.00 0.00 0.00 0.00 0.00 0.00 0.00 0.00 0.00 0.00 0.00 0.00 0.00 0.00
0.00 0.00 0.00 0.00 0.00 0.00 0.00 0.00 0.00 0.00 0.00 0.00 0.00 0.00 0.00 0.00 0.00 0.00 0.00 0.00 0.00 0.00 0.00 0.00 0.00 0.00 0.00 0.00 0.00 0.00 0.00 0.00 0.00 0.00 0.00 0.00 0.00 0.00 0.00 0.00 0.00 0.00 0.00 0.00
0.00 0.00 0.00 0.00 0.00 0.00 0.00 0.00 0.00 0.00 0.00 0.00 0.00 0.00 0.00 0.00 0.00 0.00 0.00 0.00 0.00 0.00 0.00 0.00 0.00 0.00 0.00 0.00 0.00 0.00 0.00 0.00 0.00 0.00 0.00 0.00 0.00 0.00 0.00 0.00 0.00 0.00 0.00 0.00
0.00 0.00 0.00 0.00 0.00 0.00 0.00 0.00 0.00 0.00 0.00 0.00 0.00 0.00 0.00 0.00 0.00 0.00 0.00 0.00 0.00 0.00 0.00 0.00 0.00 0.00 0.00 0.00 0.00 0.00 0.00 0.00 0.00 0.01 0.01 0.00 0.00 0.00 0.00 0.00 0.00 0.01 0.00 0.00
0.00 0.00 0.00 0.00 0.00 0.00 0.00 0.00 0.00 0.00 0.00 0.00 0.00 0.00 0.00 0.00 0.00 0.00 0.00 0.00 0.00 0.00 0.00 0.00 0.00 0.00 0.00 0.00 0.00 0.00 0.00 0.00 0.00 0.00 0.02 0.01 0.00 0.00 0.00 0.00 0.00 0.00 0.00 0.00
0.00 0.00 0.00 0.00 0.00 0.00 0.00 0.00 0.00 0.00 0.00 0.00 0.00 0.00 0.00 0.00 0.00 0.00 0.00 0.00 0.00 0.00 0.00 0.00 0.00 0.00 0.00 0.00 0.00 0.00 0.00 0.00 0.00 0.00 0.00 0.00 0.00 0.00 0.00 0.00 0.00 0.00 0.00 0.00
0.00 0.00 0.00 0.00 0.00 0.00 0.00 0.00 0.00 0.00 0.00 0.00 0.00 0.00 0.00 0.00 0.00 0.00 0.00 0.00 0.00 0.00 0.00 0.00 0.00 0.00 0.00 0.00 0.00 0.00 0.00 0.00 0.00 0.00 0.00 0.00 0.00 0.00 0.00 0.00 0.00 0.00 0.00 0.00
0.00 0.00 0.00 0.00 0.00 0.00 0.00 0.00 0.00 0.00 0.00 0.00 0.00 0.00 0.00 0.00 0.00 0.00 0.00 0.00 0.00 0.00 0.00 0.00 0.00 0.00 0.00 0.00 0.00 0.00 0.00 0.00 0.00 0.00 0.00 0.00 0.00 0.00 0.00 0.00 0.00 0.00 0.00 0.00
0.00 0.00 0.00 0.00 0.00 0.00 0.00 0.00 0.00 0.00 0.00 0.00 0.00 0.00 0.00 0.00 0.00 0.00 0.00 0.00 0.00 0.00 0.00 0.00 0.00 0.00 0.00 0.00 0.00 0.00 0.00 0.00 0.00 0.00 0.00 0.00 0.00 0.00 0.00 0.00 0.00 0.00 0.00 0.00
0.00 0.00 0.00 0.00 0.00 0.00 0.00 0.00 0.00 0.00 0.00 0.00 0.00 0.00 0.00 0.00 0.00 0.00 0.00 0.00 0.00 0.00 0.00 0.00 0.00 0.00 0.00 0.00 0.00 0.00 0.00 0.01 0.01 0.01 0.00 0.00 0.00 0.00 0.00 0.00 0.00 0.00 0.00 0.00
0.00 0.00 0.00 0.00 0.00 0.00 0.00 0.00 0.00 0.00 0.00 0.00 0.00 0.00 0.00 0.00 0.00 0.00 0.00 0.00 0.00 0.00 0.00 0.00 0.00 0.00 0.00 0.00 0.00 0.00 0.00 0.00 0.01 0.02 0.00 0.00 0.00 0.00 0.00 0.00 0.00 0.00 0.00 0.00
0.00 0.00 0.00 0.00 0.00 0.00 0.00 0.00 0.00 0.00 0.00 0.00 0.00 0.00 0.00 0.00 0.00 0.00 0.00 0.00 0.00 0.00 0.00 0.00 0.00 0.00 0.00 0.00 0.00 0.00 0.00 0.01 0.02 0.00 0.00 0.00 0.00 0.00 0.00 0.00 0.00 0.00 0.00 0.00
0.00 0.00 0.00 0.00 0.00 0.00 0.00 0.00 0.00 0.00 0.00 0.00 0.00 0.00 0.00 0.00 0.00 0.00 0.00 0.00 0.00 0.00 0.00 0.00 0.00 0.00 0.00 0.00 0.00 0.00 0.01 0.00 0.00 0.00 0.00 0.00 0.00 0.00 0.00 0.00 0.00 0.00 0.00 0.00
0.00 0.00 0.00 0.00 0.00 0.00 0.00 0.00 0.00 0.00 0.00 0.00 0.00 0.00 0.00 0.00 0.00 0.00 0.00 0.00 0.00 0.00 0.00 0.00 0.00 0.00 0.00 0.00 0.00 0.00 0.01 0.01 0.00 0.00 0.00 0.00 0.00 0.00 0.00 0.00 0.00 0.00 0.00 0.00
0.00 0.00 0.00 0.00 0.00 0.00 0.00 0.00 0.00 0.00 0.00 0.00 0.00 0.00 0.00 0.00 0.00 0.00 0.00 0.00 0.00 0.00 0.00 0.00 0.00 0.00 0.00 0.00 0.01 0.00 0.00 0.00 0.00 0.00 0.00 0.00 0.00 0.00 0.00 0.00 0.00 0.00 0.00 0.00
0.00 0.00 0.00 0.00 0.00 0.00 0.00 0.00 0.00 0.00 0.00 0.00 0.00 0.00 0.00 0.00 0.00 0.00 0.00 0.00 0.00 0.00 0.00 0.00 0.00 0.00 0.00 0.00 0.00 0.01 0.00 0.00 0.00 0.00 0.00 0.00 0.00 0.00 0.00 0.00 0.00 0.00 0.00 0.00
0.00 0.00 0.00 0.00 0.00 0.00 0.00 0.00 0.00 0.00 0.00 0.00 0.00 0.00 0.00 0.00 0.00 0.00 0.00 0.00 0.00 0.00 0.00 0.00 0.00 0.00 0.00 0.00 0.01 0.00 0.00 0.00 0.00 0.00 0.00 0.00 0.00 0.00 0.00 0.00 0.00 0.00 0.00 0.00
0.00 0.00 0.00 0.00 0.00 0.00 0.00 0.00 0.00 0.00 0.00 0.00 0.00 0.00 0.00 0.00 0.00 0.00 0.00 0.00 0.00 0.00 0.00 0.00 0.00 0.00 0.00 0.00 0.00 0.00 0.00 0.00 0.00 0.00 0.00 0.00 0.00 0.00 0.00 0.00 0.00 0.00 0.00 0.00
0.00 0.00 0.00 0.01 0.01 0.00 0.00 0.00 0.00 0.00 0.00 0.00 0.00 0.00 0.00 0.00 0.00 0.00 0.00 0.00 0.00 0.00 0.00 0.00 0.00 0.00 0.00 0.00 0.00 0.00 0.00 0.00 0.00 0.00 0.00 0.00 0.00 0.00 0.00 0.00 0.00 0.00 0.00 0.00
0.00 0.00 0.00 0.00 0.01 0.00 0.00 0.00 0.00 0.00 0.00 0.00 0.00 0.00 0.00 0.00 0.00 0.00 0.00 0.00 0.00 0.00 0.00 0.00 0.00 0.00 0.00 0.00 0.00 0.00 0.00 0.00 0.00 0.00 0.00 0.00 0.00 0.00 0.00 0.00 0.00 0.00 0.00 0.00
0.00 0.00 0.00 0.00 0.00 0.00 0.00 0.00 0.00 0.00 0.00 0.00 0.00 0.00 0.00 0.00 0.00 0.00 0.00 0.00 0.00 0.00 0.00 0.00 0.00 0.00 0.00 0.00 0.00 0.00 0.00 0.00 0.00 0.00 0.00 0.00 0.00 0.00 0.00 0.00 0.00 0.00 0.00 0.00
0.00 0.00 0.00 0.00 0.00 0.00 0.00 0.00 0.00 0.00 0.00 0.00 0.00 0.00 0.00 0.00 0.00 0.00 0.00 0.00 0.00 0.00 0.00 0.00 0.00 0.00 0.00 0.00 0.00 0.00 0.00 0.00 0.00 0.00 0.00 0.00 0.00 0.00 0.00 0.00 0.00 0.00 0.00 0.00
0.00 0.00 0.00 0.00 0.00 0.00 0.00 0.00 0.00 0.00 0.00 0.00 0.00 0.00 0.00 0.00 0.00 0.00 0.00 0.00 0.00 0.00 0.00 0.00 0.00 0.00 0.00 0.00 0.00 0.00 0.00 0.00 0.00 0.00 0.00 0.00 0.00 0.00 0.00 0.00 0.00 0.00 0.00 0.00
0.00 0.00 0.00 0.00 0.00 0.00 0.00 0.00 0.00 0.00 0.00 0.00 0.00 0.00 0.00 0.00 0.00 0.00 0.00 0.00 0.00 0.00 0.00 0.00 0.00 0.00 0.00 0.00 0.00 0.00 0.00 0.00 0.00 0.00 0.00 0.00 0.00 0.00 0.00 0.00 0.00 0.00 0.00 0.00
0.00 0.00 0.00 0.00 0.00 0.00 0.00 0.00 0.00 0.00 0.00 0.00 0.00 0.00 0.00 0.00 0.00 0.00 0.00 0.00 0.00 0.00 0.00 0.00 0.00 0.00 0.00 0.00 0.00 0.00 0.00 0.00 0.00 0.00 0.00 0.00 0.00 0.00 0.00 0.00 0.00 0.00 0.00 0.00
MSLP
1015.69 1016.17 1015.93 1015.55 1015.63 1015.45 1015.47 1015.46 1015.20 1014.07 1013.68 1013.92 1013.51 1013.09 1011.89 1010.83 1011.40 1011.20 1011.26 1011.13 1011.14 1011.18 1010.97 1010.79 1010.68 1010.70 1010.60 1010.36 1010.33 1010.33 1010.50 1010.55 1010.93 1011.40 1011.61 1011.85 1011.84 1011.72 1011.70 1011.55 1011.34 1011.49 1011.47 1011.49
1016.30 1015.72 1014.77 1014.90 1015.08 1015.32 1015.29 1015.47 1015.07 1014.02 1013.64 1014.11 1013.55 1012.87 1011.81 1011.01 1010.65 1010.32 1010.37 1010.78 1010.91 1011.12 1010.94 1010.71 1010.58 1010.55 1010.45 1010.29 1010.24 1010.14 1010.18 1010.47 1010.74 1010.95 1011.04 1011.27 1011.38 1011.40 1011.23 1011.11 1010.95 1010.92 1011.12 1011.01
1016.08 1014.66 1014.44 1014.60 1014.77 1015.00 1014.91 1015.12 1014.64 1014.51 1014.11 1014.00 1014.05 1012.94 1011.67 1010.37 1010.11 1009.90 1009.87 1009.92 1010.38 1010.58 1010.79 1010.73 1010.44 1010.24 1010.21 1010.06 1009.90 1009.83 1009.99 1010.09 1010.28 1010.53 1010.83 1010.85 1011.02 1011.18 1011.10 1010.70 1010.62 1010.60 1010.61 1010.66
1015.65 1014.42 1014.27 1014.29 1014.46 1014.62 1014.44 1013.91 1014.11 1014.56 1015.02 1015.20 1014.48 1013.83 1012.12 1010.63 1010.15 1009.85 1009.88 1009.98 1010.09 1010.26 1010.63 1010.63 1010.35 1009.96 1009.84 1009.63 1009.45 1009.48 1009.42 1009.64 1009.75 1009.96 1010.23 1010.20 1010.02 1010.00 1010.19 1010.03 1009.93 1009.99 1010.05 1010.21
1014.86 1014.42 1014.12 1014.12 1013.69 1013.81 1013.48 1013.45 1014.04 1014.59 1015.31 1015.65 1014.98 1015.20 1011.40 1011.02 1010.20 1009.42 1009.75 1009.96 1009.97 1010.03 1010.37 1010.49 1010.33 1009.83 1009.58 1009.09 1008.96 1009.15 1009.39 1009.39 1009.35 1009.43 1009.49 1009.41 1009.33 1009.41 1009.54 1009.68 1009.68 1009.77 1009.82 1009.86
1015.04 1014.32 1014.08 1013.06 1012.67 1012.96 1013.27 1013.73 1014.43 1015.28 1015.67 1015.87 1014.37 1014.36 1011.44 1010.83 1009.56 1009.05 1009.25 1009.67 1009.72 1009.82 1010.11 1010.23 1010.04 1009.81 1009.51 1008.92 1008.67 1008.89 1009.13 1008.96 1008.82 1008.90 1008.75 1008.60 1008.66 1008.82 1009.08 1009.06 1009.05 1009.23 1009.40 1009.69
1015.01 1014.17 1013.19 1012.88 1012.87 1012.90 1013.33 1014.26 1015.56 1016.07 1016.42 1014.94 1013.82 1013.95 1010.96 1009.67 1009.20 1008.94 1008.97 1009.26 1009.48 1009.90 1010.21 1010.28 1010.15 1009.79 1009.42 1008.94 1008.57 1008.53 1008.62 1008.45 1008.27 1008.18 1008.20 1008.23 1008.16 1008.34 1008.38 1008.45 1008.45 1008.64 1008.96 1009.09
1015.99 1013.90 1013.18 1012.73 1012.73 1012.80 1013.42 1014.07 1015.15 1015.33 1015.63 1014.98 1013.87 1012.99 1010.55 1009.58 1008.99 1008.62 1008.88 1009.14 1009.62 1010.02 1010.16 1010.12 1009.89 1009.64 1009.20 1008.79 1008.40 1008.25 1008.16 1008.05 1008.00 1007.84 1007.78 1007.79 1007.88 1007.80 1007.80 1007.78 1007.66 1008.13 1008.18 1008.32
1016.30 1014.64 1013.22 1012.83 1012.59 1012.84 1013.36 1013.81 1013.66 1014.53 1014.97 1015.15 1013.49 1011.65 1010.18 1009.58 1009.53 1009.35 1009.39 1009.66 1009.92 1009.89 1009.90 1009.79 1009.63 1009.42 1008.98 1008.60 1008.27 1007.94 1007.73 1007.71 1007.68 1007.43 1007.47 1007.57 1007.59 1007.48 1007.38 1007.38 1007.25 1007.87 1007.97 1008.04
1016.58 1015.68 1013.69 1012.98 1012.90 1012.74 1012.98 1013.18 1013.79 1014.53 1014.82 1014.58 1013.05 1012.08 1010.73 1010.09 1010.03 1010.21 1010.27 1010.31 1010.10 1009.65 1009.84 1009.74 1009.66 1009.42 1009.01 1008.59 1008.16 1007.80 1007.54 1007.45 1007.37 1007.24 1007.16 1007.15 1007.31 1007.36 1007.35 1007.35 1007.61 1007.77 1007.76 1007.91
1017.61 1016.81 1014.85 1014.14 1013.30 1012.92 1013.46 1013.40 1013.68 1013.97 1014.11 1013.86 1013.40 1011.81 1010.58 1010.45 1010.66 1011.15 1011.11 1011.01 1010.68 1010.07 1009.92 1009.69 1009.62 1009.45 1009.09 1008.54 1008.20 1007.72 1007.35 1007.14 1007.14 1006.99 1007.02 1006.98 1007.22 1007.22 1007.43 1007.16 1007.77 1007.99 1007.88 1008.01
1019.30 1017.96 1016.70 1014.82 1013.46 1012.98 1012.97 1013.03 1013.36 1013.97 1013.74 1013.55 1013.32 1012.17 1011.56 1011.18 1012.11 1012.49 1012.28 1011.86 1010.98 1010.52 1010.07 1009.88 1009.70 1009.51 1009.13 1008.73 1008.22 1007.70 1007.19 1007.00 1006.86 1006.85 1006.85 1006.81 1006.96 1007.35 1007.44 1007.61 1007.84 1008.16 1008.41 1008.59
1021.10 1019.11 1017.84 1015.81 1014.46 1013.57 1013.61 1013.60 1013.73 1014.02 1013.66 1013.43 1013.59 1012.84 1012.78 1013.02 1012.71 1013.99 1013.65 1012.99 1012.13 1011.26 1010.61 1010.25 1009.94 1009.62 1009.23 1008.88 1008.38 1007.70 1007.23 1006.91 1006.60 1006.56 1006.67 1006.70 1006.73 1007.03 1007.33 1007.61 1007.90 1008.47 1008.87 1009.04
1021.65 1020.48 1019.05 1017.76 1016.32 1015.92 1015.19 1014.78 1014.70 1015.14 1015.13 1014.36 1013.91 1013.68 1013.90 1014.25 1014.32 1014.97 1014.86 1014.09 1013.19 1012.22 1011.55 1010.80 1010.26 1009.84 1009.43 1009.08 1008.57 1008.00 1007.51 1006.98 1006.72 1006.58 1006.69 1006.73 1006.50 1006.76 1006.96 1007.37 1007.91 1008.46 1009.03 1009.57
1022.81 1021.53 1020.47 1018.97 1018.03 1017.44 1016.31 1015.65 1015.37 1015.45 1015.37 1015.28 1014.25 1015.32 1016.18 1016.31 1016.29 1016.57 1016.15 1014.99 1013.64 1013.02 1012.10 1011.44 1010.84 1010.35 1009.84 1009.40 1008.73 1008.27 1007.73 1007.19 1006.89 1006.78 1006.66 1006.60 1006.67 1006.76 1006.89 1007.20 1007.70 1008.51 1009.18 1009.66
1022.71 1021.73 1021.08 1019.60 1018.80 1018.01 1016.95 1016.50 1016.16 1016.00 1015.90 1015.69 1015.73 1016.97 1017.57 1017.50 1017.56 1016.91 1016.48 1015.77 1014.70 1014.13 1013.47 1012.58 1011.76 1011.13 1010.50 1009.84 1009.13 1008.66 1008.30 1007.91 1007.58 1007.46 1007.14 1007.00 1007.04 1006.98 1007.09 1007.43 1007.85 1008.53 1009.20 1009.69
1023.65 1022.76 1022.04 1020.13 1019.79 1018.79 1018.18 1017.89 1017.54 1017.99 1018.12 1017.96 1017.92 1019.00 1019.02 1018.78 1018.51 1018.01 1017.40 1016.70 1015.93 1015.29 1014.69 1013.60 1012.62 1011.94 1011.26 1010.49 1009.70 1009.25 1008.99 1008.60 1008.24 1008.01 1007.92 1007.77 1007.69 1007.73 1007.73 1007.88 1008.15 1008.67 1009.19 1009.80
1023.45 1022.42 1021.90 1020.67 1020.76 1019.79 1020.05 1019.40 1019.35 1019.56 1019.88 1019.86 1020.13 1020.32 1020.33 1019.92 1019.39 1018.66 1018.46 1017.66 1016.72 1015.97 1015.37 1014.30 1013.25 1012.41 1011.81 1011.11 1010.48 1010.30 1009.98 1009.43 1009.23 1008.97 1008.93 1008.89 1008.87 1008.93 1008.61 1008.80 1008.93 1009.08 1009.42 1009.98
1022.44 1022.18 1021.72 1021.11 1020.53 1020.55 1020.52 1020.64 1020.66 1020.84 1021.75 1021.99 1021.89 1021.78 1021.41 1020.47 1018.88 1018.87 1019.23 1018.39 1017.52 1016.67 1015.98 1015.58 1014.22 1013.16 1012.45 1011.82 1011.31 1011.05 1010.94 1010.54 1010.24 1010.09 1009.99 1010.13 1010.04 1009.99 1009.95 1009.99 1010.07 1010.29 1010.20 1010.54
1022.65 1022.65 1022.85 1021.95 1021.57 1021.34 1022.52 1021.68 1020.36 1020.54 1022.79 1023.75 1023.68 1023.39 1022.80 1021.89 1020.96 1020.43 1019.70 1018.86 1017.79 1017.09 1016.44 1015.59 1014.77 1013.61 1013.02 1012.64 1011.98 1011.71 1011.57 1011.25 1011.13 1011.23 1011.05 1011.00 1010.89 1011.16 1011.14 1011.23 1011.32 1011.45 1011.16 1011.43
1023.50 1023.43 1023.42 1023.39 1023.33 1023.27 1024.11 1022.88 1021.09 1022.78 1025.87 1025.26 1025.02 1024.75 1024.14 1023.68 1023.15 1021.66 1020.43 1019.58 1018.90 1017.94 1016.82 1015.98 1015.20 1014.49 1013.65 1013.10 1012.81 1012.46 1012.47 1012.28 1012.08 1012.02 1012.08 1012.04 1012.05 1012.14 1012.13 1012.07 1012.08 1012.22 1012.17 1012.55
1025.20 1025.38 1025.04 1024.93 1025.11 1025.38 1025.46 1023.90 1025.07 1027.65 1026.93 1026.68 1026.24 1025.85 1025.21 1024.57 1023.55 1022.67 1021.62 1020.52 1019.30 1018.22 1017.19 1016.49 1015.81 1015.07 1014.21 1013.63 1013.19 1013.07 1012.93 1012.99 1012.70 1012.76 1012.85 1012.74 1012.60 1012.49 1012.77 1012.85 1013.08 1013.15 1013.31 1013.70
1026.78 1027.85 1027.31 1027.44 1027.36 1028.04 1027.71 1027.95 1028.49 1028.36 1027.87 1027.37 1027.03 1026.43 1025.95 1024.84 1023.83 1023.00 1022.06 1021.10 1020.09 1018.95 1017.81 1017.17 1016.61 1015.64 1014.73 1014.14 1013.71 1013.38 1013.33 1013.29 1013.15 1013.42 1013.63 1013.56 1013.26 1013.36 1013.43 1013.48 1013.72 1013.90 1014.40 1014.45
1028.32 1028.46 1028.49 1028.39 1028.77 1028.70 1028.52 1028.48 1028.49 1028.64 1028.29 1027.99 1027.34 1026.76 1026.13 1025.14 1024.21 1023.07 1022.14 1021.17 1020.26 1019.30 1018.38 1017.54 1016.87 1015.94 1015.16 1014.59 1014.25 1013.92 1013.67 1013.64 1013.91 1013.82 1014.41 1014.44 1014.00 1014.11 1014.12 1014.12 1014.16 1014.25 1014.53 1015.05
1030.80 1030.33 1030.38 1029.75 1029.62 1029.31 1028.51 1029.22 1029.08 1028.28 1028.17 1027.80 1027.29 1026.74 1025.92 1025.06 1023.84 1023.17 1021.91 1021.06 1020.25 1019.50 1018.61 1018.03 1017.15 1016.28 1015.61 1015.04 1014.71 1014.49 1014.23 1014.31 1014.60 1014.81 1015.28 1015.25 1015.06 1015.13 1015.30 1015.42 1015.68 1015.74 1015.92 1015.81
1032.24 1032.26 1032.13 1031.46 1031.18 1031.27 1030.45 1029.82 1029.43 1028.88 1028.08 1027.42 1026.82 1025.97 1025.50 1024.83 1023.39 1022.71 1021.54 1020.76 1020.07 1019.26 1018.62 1017.99 1017.29 1016.57 1015.76 1015.33 1015.02 1014.94 1014.74 1014.66 1015.13 1015.53 1015.99 1016.10 1016.14 1016.22 1016.34 1016.41 1016.64 1016.92 1016.88 1017.16
Thickness
5608 5601 5598 5602 5596 5603 5601 5593 5591 5598 5604 5597 5593 5592 5611 5623 5606 5602 5602 5604 5602 5602 5604 5605 5604 5602 5602 5603 5600 5596 5590 5586 5577 5567 5560 5554 5553 5553 5557 5566 5574 5579 5586 5593
5594 5593 5606 5603 5597 5589 5587 5581 5580 5591 5593 5581 5586 5587 5603 5610 5608 5606 5605 5598 5596 5596 5595 5597 5596 5595 5594 5593 5590 5587 5582 5573 5563 5558 5554 5549 5545 5544 5544 5547 5555 5563 5569 5578
5588 5605 5603 5597 5593 5585 5582 5573 5576 5575 5582 5578 5575 5575 5593 5610 5607 5607 5603 5600 5596 5595 5590 5587 5589 5590 5587 5585 5583 5578 5572 5565 5559 5554 5547 5543 5537 5533 5532 5537 5540 5546 5553 5560
5584 5596 5595 5588 5582 5576 5567 5578 5574 5569 5561 5547 5564 5533 5577 5598 5596 5599 5591 5589 5589 5587 5581 5579 5583 5584 5582 5580 5576 5571 5567 5558 5553 5548 5541 5536 5533 5530 5527 5528 5530 5536 5543 5550
5588 5589 5585 5577 5578 5572 5570 5576 5565 5562 5549 5539 5549 5521 5567 5580 5586 5588 5582 5577 5578 5580 5576 5573 5574 5576 5575 5575 5571 5564 5556 5550 5546 5542 5538 5533 5527 5522 5517 5515 5518 5525 5533 5540
5573 5577 5577 5577 5581 5570 5569 5562 5550 5532 5528 5503 5550 5542 5566 5570 5583 5587 5579 5573 5574 5575 5571 5568 5568 5567 5566 5567 5566 5557 5549 5547 5541 5537 5533 5529 5525 5519 5512 5510 5512 5520 5526 5532
5566 5570 5572 5573 5566 5564 5557 5538 5504 5502 5497 5522 5536 5524 5562 5573 5576 5575 5570 5569 5568 5565 5559 5556 5557 5559 5560 5561 5558 5553 5547 5544 5538 5535 5527 5524 5523 5517 5513 5511 5511 5515 5520 5527
5526 5559 5563 5564 5557 5551 5538 5529 5498 5515 5497 5524 5520 5522 5549 5562 5562 5565 5563 5565 5558 5554 5549 5549 5552 5551 5553 5555 5554 5548 5545 5542 5535 5530 5526 5521 5518 5515 5512 5510 5512 5513 5518 5523
5514 5536 5555 5550 5550 5543 5533 5519 5528 5516 5504 5470 5514 5533 5551 5555 5553 5549 5551 5549 5547 5544 5545 5546 5548 5546 5548 5548 5548 5545 5543 5539 5532 5529 5523 5519 5515 5514 5516 5513 5511 5506 5511 5518
5512 5500 5541 5543 5537 5535 5525 5524 5506 5490 5501 5499 5496 5512 5526 5539 5540 5537 5539 5538 5537 5541 5539 5540 5540 5539 5540 5541 5541 5540 5539 5536 5531 5527 5523 5519 5517 5513 5513 5512 5512 5512 5517 5516
5491 5480 5517 5521 5517 5519 5505 5501 5503 5495 5487 5501 5503 5507 5523 5528 5526 5524 5525 5520 5518 5525 5529 5531 5531 5532 5532 5533 5534 5535 5535 5534 5528 5524 5521 5520 5517 5516 5514 5511 5508 5509 5511 5514
5455 5448 5452 5498 5508 5511 5509 5501 5494 5478 5493 5474 5476 5500 5507 5513 5502 5488 5494 5498 5503 5511 5520 5522 5522 5524 5528 5528 5529 5530 5532 5531 5527 5522 5520 5520 5518 5516 5514 5512 5507 5506 5505 5515
5424 5432 5429 5471 5489 5495 5492 5492 5490 5476 5474 5474 5481 5492 5487 5480 5480 5464 5468 5475 5481 5494 5509 5512 5511 5512 5515 5520 5522 5526 5527 5529 5526 5522 5520 5519 5518 5516 5513 5511 5507 5505 5504 5507
5407 5414 5424 5430 5456 5449 5457 5461 5462 5454 5449 5457 5465 5474 5461 5457 5456 5449 5451 5457 5463 5477 5487 5496 5500 5501 5507 5510 5514 5517 5520 5524 5523 5521 5518 5516 5519 5515 5513 5511 5507 5505 5503 5499
5369 5362 5380 5398 5406 5410 5425 5438 5441 5437 5446 5446 5471 5464 5420 5427 5429 5423 5430 5444 5456 5465 5474 5479 5487 5488 5496 5500 5506 5509 5513 5518 5518 5518 5518 5517 5515 5512 5511 5509 5507 5502 5498 5494
5352 5336 5350 5359 5383 5394 5409 5418 5417 5423 5428 5437 5449 5410 5408 5409 5410 5418 5423 5429 5438 5444 5452 5462 5469 5474 5482 5489 5497 5500 5503 5507 5510 5509 5510 5511 5511 5512 5509 5507 5504 5501 5496 5495
5310 5312 5313 5324 5348 5363 5368 5365 5382 5372 5374 5386 5405 5379 5378 5388 5394 5400 5406 5414 5421 5425 5431 5445 5455 5460 5465 5477 5485 5489 5492 5497 5503 5503 5504 5505 5504 5505 5506 5505 5504 5500 5498 5496
5279 5285 5290 5299 5317 5310 5318 5340 5343 5343 5346 5356 5359 5360 5359 5364 5374 5385 5386 5395 5405 5412 5415 5428 5442 5451 5454 5465 5472 5475 5477 5484 5489 5494 5495 5495 5494 5495 5498 5497 5497 5498 5498 5496
5292 5287 5290 5295 5305 5306 5304 5307 5314 5316 5317 5319 5329 5332 5336 5349 5372 5377 5368 5381 5392 5399 5407 5411 5427 5438 5445 5452 5459 5462 5463 5469 5474 5478 5481 5481 5482 5484 5485 5485 5486 5487 5490 5489
5292 5278 5282 5297 5298 5313 5278 5295 5318 5317 5303 5285 5294 5302 5312 5326 5339 5348 5359 5371 5382 5390 5397 5407 5415 5428 5433 5438 5448 5452 5454 5458 5461 5463 5467 5469 5470 5468 5471 5472 5473 5473 5479 5479
5272 5275 5274 5278 5280 5280 5254 5278 5307 5297 5262 5260 5274 5282 5294 5299 5310 5329 5345 5353 5364 5375 5387 5396 5405 5413 5422 5428 5434 5440 5441 5445 5449 5452 5453 5455 5456 5456 5458 5461 5463 5464 5466 5465
5258 5252 5253 5264 5259 5270 5241 5267 5257 5220 5233 5242 5251 5259 5269 5281 5297 5308 5321 5334 5349 5362 5374 5384 5392 5401 5411 5418 5425 5429 5432 5433 5438 5440 5442 5444 5448 5451 5450 5449 5451 5451 5454 5453
5246 5223 5236 5236 5235 5210 5218 5212 5209 5211 5218 5226 5232 5241 5251 5265 5281 5293 5306 5318 5332 5347 5360 5370 5378 5390 5400 5407 5413 5421 5422 5425 5428 5427 5428 5431 5436 5437 5438 5440 5441 5442 5439 5441
5216 5215 5215 5220 5206 5201 5207 5204 5204 5201 5206 5211 5219 5227 5236 5251 5265 5280 5294 5308 5320 5333 5346 5359 5367 5379 5388 5397 5402 5408 5413 5416 5416 5419 5416 5418 5424 5426 5428 5430 5432 5435 5435 5433
5194 5198 5191 5194 5193 5196 5205 5188 5189 5197 5197 5202 5210 5218 5227 5239 5257 5268 5285 5298 5310 5321 5333 5344 5356 5369 5377 5385 5391 5395 5401 5404 5404 5405 5403 5405 5409 5412 5413 5414 5414 5415 5416 5420
5181 5176 5174 5176 5177 5172 5176 5178 5181 5184 5189 5195 5202 5212 5219 5229 5248 5259 5275 5288 5300 5312 5323 5334 5347 5358 5369 5376 5382 5386 5391 5395 5394 5394 5392 5393 5394 5396 5399 5400 5400 5400 5403 5403